Location: Aranbee
(34.0885°N, 118.2342°W)
Time: 00:31:25
(UTC+00:00)

A-11 Canister half - Pass Details

Date: 07 August 2021
Orbit: 1515 x 1685 km, 47.2° (Epoch: 22 September)

Event Time Altitude Azimuth Distance (km) Brightness Sun altitude
Rises 07:06:54 0° 300° (WNW) 4,920 12.2 -38.1°
Reaches altitude 10° 07:10:22 10° 293° (WNW) 3,940 11.5 -38.3°
Enters shadow 07:17:05 34° 255° (WSW) 2,541 10.0 -38.6°
